Regional Weather Roundup
Issued by NWS Grand Forks, ND

Home | Current Version | Previous Version | Graphics & Text | Print | Product List | Glossary On
Versions: 1 2 3 4 5 6 7 8 9 10 11 12 13 14 15 16 17 18 19 20 21 22 23 24 25 26 27 28 29 30 31 32 33 34 35 36 37 38 39 40 41 42 43 44 45 46 47 48 49 50
000
ASUS43 KFGF 311531
RWRFGF
PRAIRIE TO PINES  WEATHER ROUNDUP
NATIONAL WEATHER SERVICE EASTERN NORTH DAKOTA/GRAND FORKS ND
1000 AM CDT FRI OCT 31 2014

 **SATELLITE DATA USED TO AUGMENT SKY COVER AT AUTOMATED STATIONS**
 *****  WEATHER ACROSS EASTERN NORTH DAKOTA  *****

CITY           SKY/WX    TMP DP  RH WIND       PRES   REMARKS
GRAND FORKS    MOSUNNY   21  17  84 CALM      30.61F
GRAND FRKS AFB SUNNY     23  20  86 S1        30.61F
GRAND FRKS NWS   N/A     25 N/A N/A S2          N/A
DEVILS LAKE    MOSUNNY   27  16  63 S14       30.52S WCI  15
FARGO          MOSUNNY   22  17  81 CALM      30.63S
WAHPETON ARPT  SUNNY     25  19  80 CALM      30.63S
$$

 ***** WEATHER ACROSS CENTRAL AND WESTERN NORTH DAKOTA  *****

CITY           SKY/WX    TMP DP  RH WIND       PRES   REMARKS
BISMARCK       MOSUNNY   23  20  88 SE9       30.52F WCI  13
MINOT          MOSUNNY   24  18  77 SE15G23   30.42F WCI  11
JAMESTOWN      SUNNY     23  19  85 SE9       30.56S WCI  13
MINOT AFB      MOSUNNY   24  21  89 SE16      30.42F WCI  10
GARRISON         N/A     25  22  88 SE14G21   30.43F WCI  13
WILLISTON      CLOUDY    31  25  78 S13G22    30.27F WCI  21
DICKINSON      MOSUNNY   29  23  78 S29G35    30.29F WCI  14
HETTINGER      CLOUDY    26  22  84 SE21G28   30.36F WCI  12
$$

 *****  OTHER AIRPORT OBSERVATIONS IN OUR AREA  *****

CITY           SKY/WX    TMP DP  RH WIND       PRES   REMARKS
WALHALLA         N/A     25  23  93 S8        30.57F WCI  16
GRAFTON AIRPOR FAIR      23  19  86 S3        30.61S
VALLEY CITY AR FAIR      23  23 100 SE6       30.57F WCI  16
CANDO          FAIR      25  23  93 SW10      30.53F WCI  15
CAVALIER APRT  FAIR      25  19  80 S9        30.58F WCI  15
GWINNER        SUNNY     27  21  80 E5        30.61F WCI  21
SHEYENNE NWR     N/A     23  17  79 N2        29.95S
ROLLA          FAIR      23  19  86 S18       30.48F WCI   9
 ***** THE ABOVE OBSERVATIONS ARE NON NWS ARE NOT QUALITY
       CONTROLLED AND MAY MIS-REPORT RAIN FOR SNOW...
$$

  *****  WEATHER ACROSS NORTHERN MINNESOTA  *****

CITY           SKY/WX    TMP DP  RH WIND       PRES   REMARKS
FLAG ISLAND    SUNNY     28  21  74 W5        30.58S WCI  23
WARROAD        CLOUDY    27  21  80 CALM      30.59F
ROSEAU         SUNNY     27  21  80 CALM      30.59F
HALLOCK        SUNNY     25  19  80 S6        30.59F WCI  18
THF RVR FALLS  SUNNY     27  21  80 SE5       30.60F WCI  21
BAUDETTE       PTSUNNY   28  21  75 SW3       30.58F
WASKISH        SUNNY     28  21  74 CALM      30.59F
CROOKSTON      SUNNY     23  19  86 SE5       30.62F WCI  17
STEPHEN NDAWN    N/A     21  18  86 SE5         N/A  WCI  15
GREENBUSH NDAW   N/A     25  21  86 SE6         N/A  WCI  18
$$
  *****  WEATHER ACROSS CENTRAL AND WEST MINNESOTA  *****

CITY           SKY/WX    TMP DP  RH WIND       PRES   REMARKS
FOSSTON        SUNNY     28  23  80 CALM      30.60F
BEMIDJI        SUNNY     26  19  74 CALM      30.59S
PARK RAPIDS    SUNNY     26  19  74 N5        30.58R WCI  20
ELBOW LAKE     FAIR      27  23  85 N3        30.60S
WADENA         SUNNY     27  19  74 NW6       30.59R WCI  20
DETROIT LAKES  SUNNY     28  23  80 CALM      30.60S
MOORHEAD       SUNNY     21  21 100 CALM      30.63S
FERGUS FALLS   SUNNY     27  21  80 E3        30.63F
MORRIS MN      SUNNY     27  23  86 N6        30.59S WCI  20
STAPLES        SUNNY     27  18  69 N6        30.57S WCI  20
$$
  *****  WEATHER ELSEWHERE ACROSS MINNESOTA  *****

CITY           SKY/WX    TMP DP  RH WIND       PRES   REMARKS
DULUTH         MOSUNNY   29  17  61 N16       30.52S WCI  17
INTRNTL FALLS  SUNNY     28  20  71 NW6       30.57R WCI  22
ELY            CLOUDY    27  19  74 N5        30.54S WCI  21
CLOQUET        SUNNY     28  18  64 N10G20    30.53S WCI  19
WHEATON        SUNNY     21  19  93 N5        30.64S WCI  15
BRAINERD       SUNNY     27  17  66 NE13      30.57R WCI  16
HIBBING        PTSUNNY   29  17  61 NE10      30.56R WCI  20
ALEXANDRIA     SUNNY     29  18  63 N10       30.58S WCI  20
SAINT CLOUD    SUNNY     30  18  60 NW6       30.57R WCI  24
MINNEAPOLIS    SUNNY     31  17  56 N17       30.55R WCI  19
$$

  *****  WEATHER ACROSS SOUTH DAKOTA  *****

CITY           SKY/WX    TMP DP  RH WIND       PRES   REMARKS
SIOUX FALLS    MOSUNNY   27  20  75 N8        30.59R WCI  19
BROOKINGS      NOT AVBL
WATERTOWN      SUNNY     22  18  85 N6        30.57R WCI  14
HURON          SUNNY     19  15  84 W3        30.61R
SISSETON         N/A     24  20  84 N7        30.61S WCI  16
ABERDEEN       MOSUNNY   22  18  85 E6        30.60S WCI  14
MITCHELL       SUNNY     21  18  88 VRB3      30.61R
PIERRE         PTSUNNY   26  23  88 SE12      30.54S FOG     WCI  16
MOBRIDGE       MOSUNNY   27  21  78 SE12      30.50F WCI  17
RAPID CITY     CLOUDY    30  28  92 S22       30.37S FOG     WCI  17
$$

  *****  SOME WEATHER IN NEARBY STATES *****

CITY           SKY/WX    TMP DP  RH WIND       PRES   REMARKS
GLASGOW MT     CLEAR     34  29  82 SE25      30.04F WCI  21
GREAT FALLS MT MOCLDY    55  31  39 S16G24    29.81F
CHEYENNE WY    SUNNY     32  27  81 S10       30.32S WCI  24
SCOTTSBLUFF NE PTSUNNY   32  30  92 SE16      30.39F FOG     WCI  21
OMAHA NE       SUNNY     32  20  61 N15       30.59R WCI  22
DES MOINES IA  SUNNY     33  18  53 N16       30.50R WCI  23
DAVENPORT IA   SUNNY     37  21  52 N24G30    30.32R
CHICAGO IL     PTSUNNY   39  28  64 N26G35    30.12R
EAU CLAIRE WI  SUNNY     33  20  58 N13G24    30.48R WCI  24
LA CROSSE WI   PTSUNNY   35  21  56 N21       30.45R WCI  24
$$

  *****  SOME NATIONAL WEATHER *****

CITY           SKY/WX    TMP DP  RH WIND       PRES   REMARKS
LA GUARDIA NY  CLOUDY    49  35  58 NE13      29.99F
RALEIGH NC     MOSUNNY   54  42  64 NE5       29.95F
ATLANTA GA     MOSUNNY   56  42  59 N6        29.94F
NEW ORLEANS LA MOSUNNY   66  51  58 NW9       30.07S
OKLAHOMA CITY  CLOUDY    47  38  71 N17G26    30.42R
ALBUQUERQUE NM MOSUNNY   54  27  35 E18       30.37R
SALT LAKE CITY PTSUNNY   58  24  27 SE15      30.00R
LOS ANGELES CA MOCLDY    64  62  94 E5        29.97R
BOISE ID       CLOUDY    50  36  58 SE3       29.80R
SEATTLE WA     RAIN      51  49  92 SW6       29.71R VSB 1/2
$$

*** WEATHER ACROSS MANITOBA...SASKATCHEWAN AND ONTARIO ***
                ***ONTARIO***

CITY           SKY/WX    TMP DP  RH WIND       PRES   REMARKS
GERALDTON      MOSUNNY   25  21  86 NW6       30.43S WCI  18
THUNDER BAY    MOSUNNY   32  19  59 NW12G22   30.51S WCI  23
SIOUX LOOKOUT  CLOUDY    25  21  86 NW5       30.53F WCI  19
TORONTO        LGT RAIN  43  39  87 SE6       29.94F
BIG TROUT LK   CLOUDY    19  19 100 W10       30.44F WCI   8
PICKLE LAKE    FLURRIES  23  16  74 W12       30.47F WCI  12
DRYDEN         CLOUDY    23  21  93 W5        30.54S WCI  17
KENORA         MOSUNNY   25  19  80 W5        30.56S WCI  19
$$
                *** MANITOBA***

CITY           SKY/WX    TMP DP  RH WIND       PRES   REMARKS
BRANDON        PTSUNNY   21  16  79 S6        30.49F WCI  14
DAUPHIN        SUNNY     23  19  86 CALM      30.43F
ISLAND LAKE    MOSUNNY   27  21  80 SW7       30.44F WCI  19
PILOT MOUND      N/A     19  19 100 S12G17      N/A  WCI   7
THE PAS        CLOUDY    27  23  86 S16       30.26F WCI  14
THOMPSON       PTCLDY    21  18  86 S6        30.29F WCI  14
WINNIPEG       MOSUNNY   23  18  80 S8        30.58F WCI  14
LYNN LAKE      CLEAR     23  21  93 S12G17    30.12F WCI  12
CHURCHILL      MOCLDY    27  21  80 SW13      30.16F WCI  16
GILLAM         MOCLDY    19  16  86 SW7       30.33F WCI  10
$$
                ***SASKATCHEWAN***

CITY           SKY/WX    TMP DP  RH WIND       PRES   REMARKS
ESTEVAN        CLOUDY    27  23  86 SE13G18   30.29F WCI  16
KINDERSLEY     MOCLDY    37  32  81 SE20G26   29.80F
LLOYDMINSTER   MOCLDY    34  30  86 SE15G22   29.75F WCI  24
PRINCE ALBERT  CLOUDY    30  25  80 S13       30.05F WCI  20
REGINA         CLOUDY    27  25  93 SE24G32   30.16F WCI  12
YORKTON        MOCLDY    25  21  86 SE18G25   30.27F WCI  11
N. BATTLEFORD  CLOUDY    36  32  87 SE18G28   29.88F
LA RONGE       MOCLDY    28  25  86 SE14G23   30.01F WCI  17
SASKATOON      CLOUDY    34  28  80 SE18G24   29.98F WCI  23
SWIFT CURRENT  PTCLDY    34  30  86 S32G39    29.86F WCI  20
$$
NOTE: THESE ARE AUTOMATED STATIONS WITH LIMITED QUALITY CONTROL
      "FAIR" INDICATES FEW OR NO CLOUDS BELOW 12,000 FEET WITH NO
      SIGNIFICANT WEATHER AND/OR OBSTRUCTIONS TO VISIBILITY.
      SKY/WX - SKY CONDITION AND SIGNIFICANT WEATHER.
      TMP - AIR TEMPERATURE.    DP   - DEWPOINT TEMPERATURE.
      RH  - RELATIVE HUMIDITY.  PRES - PRESSURE.
      HX  - HEAT INDEX.         WCI  - WIND CHILL INDEX.
$



USA.gov is the U.S. government's official web portal to all federal, state and local government web resources and services.